Tiempo cada hora Dabrowka

Hoy, 25 Junio, Viernes

Tiempo Temperatura Precipitaciones Viento Presión Humedad
00:00 +18°C° 0.9 mm 2 mps 735 mmHg 94%
01:00 +18°C° 0.9 mm 2 mps 735 mmHg 95%
02:00 +18°C° 0.3 mm 2 mps 734 mmHg 95%
03:00 +19°C° 0.3 mm 1 mps 734 mmHg 95%
04:00 +18°C° 0.3 mm 1 mps 734 mmHg 95%
05:00 +19°C° 0 mm 1 mps 734 mmHg 91%
06:00 +19°C° 0 mm 2 mps 734 mmHg 88%
07:00 +20°C° 0 mm 3 mps 734 mmHg 85%
08:00 +21°C° 0.1 mm 3 mps 734 mmHg 84%
09:00 +21°C° 0.1 mm 4 mps 735 mmHg 82%
10:00 +21°C° 0.1 mm 4 mps 735 mmHg 80%
11:00 +20°C° 0.3 mm 4 mps 735 mmHg 84%
12:00 +19°C° 0.3 mm 4 mps 735 mmHg 88%
13:00 +19°C° 0.3 mm 4 mps 736 mmHg 92%
14:00 +19°C° 0 mm 4 mps 735 mmHg 87%
15:00 +20°C° 0 mm 4 mps 735 mmHg 82%
16:00 +21°C° 0 mm 4 mps 735 mmHg 77%
17:00 +20°C° 0 mm 3 mps 735 mmHg 78%
18:00 +20°C° 0 mm 2 mps 735 mmHg 80%
19:00 +20°C° 0 mm 1 mps 735 mmHg 81%
20:00 +19°C° 0 mm 1 mps 735 mmHg 84%
21:00 +17°C° 0 mm 2 mps 735 mmHg 87%
22:00 +17°C° 0 mm 2 mps 736 mmHg 90%
23:00 +16°C° 0 mm 2 mps 736 mmHg 91%

Mañana, 26 Junio, Sábado

Tiempo Temperatura Precipitaciones Viento Presión Humedad
00:00 +16°C° 0 mm 2 mps 736 mmHg 92%
01:00 +15°C° 0 mm 2 mps 736 mmHg 93%
02:00 +15°C° 0 mm 2 mps 736 mmHg 93%
03:00 +15°C° 0 mm 2 mps 736 mmHg 93%
04:00 +15°C° 0 mm 2 mps 736 mmHg 93%
05:00 +16°C° 0 mm 2 mps 736 mmHg 88%
06:00 +19°C° 0 mm 1 mps 737 mmHg 83%
07:00 +20°C° 0 mm 1 mps 737 mmHg 78%
08:00 +21°C° 0.2 mm 1 mps 737 mmHg 73%
09:00 +21°C° 0.2 mm 2 mps 737 mmHg 69%
10:00 +23°C° 0.2 mm 2 mps 737 mmHg 65%
11:00 +23°C° 0.7 mm 2 mps 737 mmHg 65%
12:00 +24°C° 0.7 mm 3 mps 737 mmHg 65%
13:00 +24°C° 0.7 mm 3 mps 737 mmHg 64%
14:00 +24°C° 0.6 mm 3 mps 737 mmHg 65%
15:00 +24°C° 0.6 mm 3 mps 736 mmHg 66%
16:00 +24°C° 0.6 mm 3 mps 736 mmHg 67%
17:00 +22°C° 0.4 mm 3 mps 736 mmHg 72%
18:00 +20°C° 0.4 mm 3 mps 736 mmHg 78%
19:00 +19°C° 0.4 mm 2 mps 736 mmHg 83%
20:00 +18°C° 0 mm 2 mps 737 mmHg 84%
21:00 +19°C° 0 mm 1 mps 737 mmHg 86%
22:00 +18°C° 0 mm 1 mps 737 mmHg 87%
23:00 +16°C° 0 mm 1 mps 737 mmHg 87%

Pasado mañana, 27 Junio, Domingo

Tiempo Temperatura Precipitaciones Viento Presión Humedad
00:00 +16°C° 0 mm 1 mps 737 mmHg 87%
01:00 +16°C° 0 mm 1 mps 737 mmHg 87%
02:00 +15°C° 0 mm 1 mps 737 mmHg 88%
03:00 +15°C° 0 mm 1 mps 737 mmHg 88%
04:00 +15°C° 0 mm 1 mps 737 mmHg 88%
05:00 +16°C° 0 mm 1 mps 737 mmHg 82%
06:00 +19°C° 0 mm 1 mps 737 mmHg 76%
07:00 +20°C° 0 mm 1 mps 737 mmHg 70%
08:00 +22°C° 0 mm 1 mps 738 mmHg 64%
09:00 +23°C° 0 mm 1 mps 738 mmHg 58%
10:00 +24°C° 0 mm 1 mps 738 mmHg 51%
11:00 +24°C° 0 mm 2 mps 738 mmHg 50%
12:00 +25°C° 0 mm 2 mps 737 mmHg 49%
13:00 +25°C° 0 mm 2 mps 737 mmHg 47%
14:00 +25°C° 0 mm 2 mps 737 mmHg 48%
15:00 +26°C° 0 mm 1 mps 737 mmHg 48%
16:00 +26°C° 0 mm 1 mps 737 mmHg 48%
17:00 +25°C° 0 mm 1 mps 737 mmHg 55%
18:00 +23°C° 0 mm 1 mps 737 mmHg 61%
19:00 +22°C° 0 mm 1 mps 737 mmHg 67%
20:00 +21°C° 0 mm 1 mps 737 mmHg 68%
21:00 +20°C° 0 mm 1 mps 737 mmHg 69%
22:00 +19°C° 0 mm 1 mps 737 mmHg 71%
23:00 +19°C° 0 mm 1 mps 737 mmHg 71%

28 Junio, Lunes

Tiempo Temperatura Precipitaciones Viento Presión Humedad
00:00 +19°C° 0 mm 1 mps 737 mmHg 72%
01:00 +18°C° 0 mm 1 mps 737 mmHg 73%
02:00 +18°C° 0 mm 1 mps 737 mmHg 74%
03:00 +16°C° 0 mm 0 mps 737 mmHg 75%
04:00 +16°C° 0 mm 0 mps 737 mmHg 76%
05:00 +17°C° 0 mm 0 mps 737 mmHg 73%
06:00 +18°C° 0 mm 0 mps 737 mmHg 70%
07:00 +19°C° 0 mm 0 mps 737 mmHg 67%
08:00 +21°C° 0 mm 0 mps 737 mmHg 63%
09:00 +24°C° 0 mm 1 mps 738 mmHg 58%
10:00 +26°C° 0 mm 1 mps 738 mmHg 54%
11:00 +26°C° 0 mm 1 mps 737 mmHg 50%
12:00 +27°C° 0 mm 1 mps 737 mmHg 47%
13:00 +28°C° 0 mm 1 mps 737 mmHg 43%
14:00 +28°C° 0 mm 1 mps 737 mmHg 43%
15:00 +28°C° 0 mm 1 mps 737 mmHg 43%
16:00 +28°C° 0 mm 1 mps 737 mmHg 42%
17:00 +26°C° 0 mm 2 mps 737 mmHg 50%
18:00 +24°C° 0 mm 2 mps 736 mmHg 57%
19:00 +23°C° 0 mm 2 mps 736 mmHg 64%
20:00 +21°C° 0 mm 2 mps 736 mmHg 64%
21:00 +20°C° 0 mm 2 mps 736 mmHg 64%
22:00 +19°C° 0 mm 2 mps 736 mmHg 64%
23:00 +18°C° 0 mm 2 mps 736 mmHg 66%

29 Junio, Martes

Tiempo Temperatura Precipitaciones Viento Presión Humedad
00:00 +18°C° 0 mm 2 mps 736 mmHg 68%
01:00 +17°C° 0 mm 2 mps 735 mmHg 70%
02:00 +17°C° 0 mm 2 mps 735 mmHg 73%
03:00 +17°C° 0 mm 2 mps 735 mmHg 75%
04:00 +17°C° 0 mm 2 mps 735 mmHg 78%
05:00 +18°C° 0 mm 2 mps 735 mmHg 73%
06:00 +20°C° 0 mm 2 mps 735 mmHg 69%
07:00 +22°C° 0 mm 3 mps 735 mmHg 65%
08:00 +24°C° 0 mm 3 mps 735 mmHg 60%
09:00 +25°C° 0 mm 3 mps 735 mmHg 56%
10:00 +27°C° 0 mm 4 mps 735 mmHg 51%
11:00 +27°C° 0 mm 3 mps 735 mmHg 49%
12:00 +28°C° 0 mm 3 mps 734 mmHg 48%
13:00 +29°C° 0 mm 2 mps 734 mmHg 46%
14:00 +29°C° 0 mm 2 mps 734 mmHg 46%
15:00 +29°C° 0 mm 2 mps 734 mmHg 46%
16:00 +29°C° 0 mm 1 mps 733 mmHg 46%
17:00 +28°C° 0 mm 1 mps 733 mmHg 53%
18:00 +26°C° 0 mm 1 mps 733 mmHg 59%
19:00 +25°C° 0 mm 1 mps 733 mmHg 65%
20:00 +24°C° 0 mm 2 mps 733 mmHg 67%
21:00 +23°C° 0 mm 2 mps 733 mmHg 69%
22:00 +21°C° 0 mm 2 mps 733 mmHg 70%
23:00 +20°C° 0 mm 2 mps 732 mmHg 74%

30 Junio, Miércoles

Tiempo Temperatura Precipitaciones Viento Presión Humedad
00:00 +20°C° 0 mm 2 mps 732 mmHg 77%
01:00 +19°C° 0 mm 2 mps 732 mmHg 80%
02:00 +19°C° 0 mm 2 mps 732 mmHg 83%
03:00 +19°C° 0 mm 2 mps 731 mmHg 85%
04:00 +18°C° 0 mm 2 mps 731 mmHg 87%
05:00 +20°C° 0 mm 2 mps 731 mmHg 82%
06:00 +22°C° 0 mm 1 mps 731 mmHg 78%
07:00 +24°C° 0 mm 1 mps 731 mmHg 73%
08:00 +26°C° 0.1 mm 1 mps 731 mmHg 68%
09:00 +27°C° 0.1 mm 1 mps 731 mmHg 62%
10:00 +29°C° 0.1 mm 1 mps 731 mmHg 57%
11:00 +29°C° 0.6 mm 2 mps 731 mmHg 58%
12:00 +29°C° 0.6 mm 3 mps 731 mmHg 60%
13:00 +28°C° 0.6 mm 3 mps 731 mmHg 61%
14:00 +28°C° 1.1 mm 4 mps 731 mmHg 64%
15:00 +27°C° 1.1 mm 4 mps 731 mmHg 66%
16:00 +26°C° 1.1 mm 5 mps 731 mmHg 69%
17:00 +24°C° 0.9 mm 3 mps 731 mmHg 76%
18:00 +21°C° 0.9 mm 2 mps 731 mmHg 82%
19:00 +20°C° 0.9 mm 1 mps 732 mmHg 89%
20:00 +20°C° 0.2 mm 1 mps 732 mmHg 89%
21:00 +20°C° 0.2 mm 1 mps 732 mmHg 90%
22:00 +18°C° 0.2 mm 2 mps 732 mmHg 91%
23:00 +18°C° 0 mm 2 mps 732 mmHg 93%
Mostrar más

Necesitamos Su Consentimiento

Meteoprog y nuestros Proveedores de Servicios pueden almacenar y acceder a sus datos personales como cookies, identificadores de dispositivo u otras tecnologías similares de su dispositivo y procesar dichos datos para personalizar contenido y anuncios, además de ofrecer funciones de redes sociales y analizar el tráfico.

  • Almacenar y/o acceder a información en su dispositivo

    Se puede almacenar o acceder a cookies, identificadores de dispositivo u otra información de su dispositivo para los fines anteriormente indicados.

  • Anuncios y contenido personalizados, medición de anuncios y contenido, percepciones del público, y desarrollo de productos

    Los anuncios y el contenido pueden personalizarse en base a su perfil. Se pueden añadir más datos para personalizar mejor los anuncios y contenidos. Se puede medir el rendimiento de los anuncios y contenidos. Se puede obtener la percepción sobre el público que ha visto los anuncios y contenidos. Dichos datos pueden usarse para desarrollar o mejorar la experiencia del usuario, sistemas y software.

Al hacer clic en ‘Estoy De Acuerdo’ usted permitirá el uso de las cookies, identificadores de dispositivo, balizas web u otras tecnologías similares indicadas. Su configuración puede cambiarse desde el navegador de su dispositivo.

Para ciertos fines, los intereses legítimos pueden ser considerados por encima del consentimiento. Puede leer más sobre ello en nuestra Política de Privacidad y Cookies.